This demonstration page uses our WeatherBlox Daily Observations layout. Learn more.

41.55636, -103.73856

Hourly Observations for December 29, 2015

Temp ( °F °C ) Dew Point ( °F °C ) Humidity (%) Winds ( mph kmh ) Pressure ( in mb ) Visibility ( mi km ) Precip ( " mm )
12:53 am 00:53 Clear 0 -18 -4 -20 84 84 NNW 12 19 30.24 1024 10 16.09344 0 0
1:53 am 01:53 Clear 1 -17 -2 -19 85 85 NW 12 19 30.27 1025 9 14.484096 0 0
2:53 am 02:53 Clear 1 -17 -2 -19 85 85 NW 13 20 30.3 1026 9 14.484096 0 0
3:53 am 03:53 Clear 0 -18 -6 -21 78 78 NNW 7 11 30.33 1027 10 16.09344 0 0
4:53 am 04:53 Clear 0 -18 -6 -21 78 78 N 7 11 30.36 1028 10 16.09344 0 0
5:53 am 05:53 Clear -2 -19 -8 -22 77 77 NW 9 15 30.36 1028 10 16.09344 0 0
6:53 am 06:53 Clear 0 -18 -6 -21 78 78 WNW 9 15 30.36 1028 9 14.484096 0 0
7:53 am 07:53 Sunny 1 -17 -4 -20 78 78 NW 9 15 30.36 1028 8 12.874752 0 0
8:53 am 08:53 Sunny 5 -15 0 -18 78 78 NNW 3 6 30.33 1027 9 14.484096 0 0
9:53 am 09:53 Sunny 7 -14 1 -17 78 78 Calm 30.36 1028 8 12.874752 0 0
10:53 am 10:53 Mostly Sunny 10 -12 5 -15 79 79 WNW 9 15 30.27 1025 10 16.09344 0 0
11:53 am 11:53 Sunny 16 -9 7 -14 67 67 WNW 7 11 30.24 1024 10 16.09344 0 0
12:53 pm 12:53 Mostly Sunny 18 -8 9 -13 68 68 WSW 6 9 30.18 1022 10 16.09344 0 0
1:53 pm 13:53 Partly Cloudy 18 -8 9 -13 68 68 Calm 30.18 1022 10 16.09344 0 0
2:53 pm 14:53 Cloudy 18 -8 9 -13 68 68 SSE 5 7 30.21 1023 10 16.09344 0 0
3:53 pm 15:53 Cloudy 18 -8 9 -13 68 68 SSE 3 6 30.21 1023 10 16.09344 0 0
4:53 pm 16:53 Cloudy 12 -11 7 -14 79 79 ESE 5 7 30.3 1026 10 16.09344 0 0
5:53 pm 17:53 Cloudy 12 -11 7 -14 79 79 E 6 9 30.3 1026 10 16.09344 0 0
6:53 pm 18:53 Cloudy 10 -12 7 -14 85 85 E 7 11 30.36 1028 10 16.09344 0 0
7:53 pm 19:53 Mostly Cloudy 10 -12 5 -15 79 79 Calm 30.36 1028 10 16.09344 0 0
8:53 pm 20:53 Cloudy 9 -13 3 -16 78 78 E 3 6 30.36 1028 10 16.09344 0 0
9:53 pm 21:53 Mostly Clear 7 -14 1 -17 78 78 Calm 30.42 1030 10 16.09344 0 0
10:53 pm 22:53 Clear 1 -17 0 -18 92 92 N 5 7 30.48 1032 10 16.09344 0 0
11:53 pm 23:53 Cloudy 3 -16 -2 -19 78 78 N 3 6 30.45 1031 10 16.09344 0 0

Powered by AerisWeather